[[{"header":{"parameterUnit":"m.s-1","parameterCategory":1,"la1":30.2991,"la2":30.254,"lo1":-89.0895,"lo2":-89.0444,"dx":0.0017,"dy":0.0017,"nx":28,"ny":28,"refTime":"2022-12-29T15:00:00:Z","depth":0,"parameterNumber":2,"parameterNumberName":"U-component_of_WINDS"},"data":[0,0,0,0,0,0,0,0,0,0,0,0,0,0,0,0,0,0,0,0,0,0,0,0,0,0,0,0,0,0,0,0,0,0,0,0,0,0,0,0,0,0,0,0,0,0,0,0,0,0,0,0,0,0,0,0,0,0,-4.2327,-4.2328,0,-4.2437,-4.2438,-4.244,-4.2401,-4.2399,-4.2397,-4.2394,-4.2507,-4.2512,-4.2517,0,0,0,0,0,0,0,0,0,0,0,0,0,-4.2084,-4.2089,-4.2327,-4.2328,-4.233,-4.2437,-4.2438,-4.244,-4.2402,-4.2399,-4.2396,-4.2393,-4.2505,-4.2512,-4.2518,0,0,0,0,0,0,0,0,0,0,0,0,0,-4.2192,-4.2091,-4.2326,-4.2323,-4.2324,-4.2437,-4.2438,-4.244,-4.2402,-4.2399,-4.2395,-4.2392,-4.2503,-4.2511,-4.2519,-4.2641,0,0,-4.2543,-4.2546,0,0,0,0,0,0,0,0,-4.2186,-4.2201,-4.2323,-4.2324,-4.2325,-4.2402,-4.2394,-4.2507,-4.2403,-4.2373,-4.2394,-4.239,-4.2475,-4.2485,-4.2514,-4.2646,-4.2651,-4.2544,-4.2548,-4.2552,-4.2554,0,0,0,0,0,0,0,-4.2178,-4.2196,-4.237,-4.2324,-4.2326,-4.2317,-4.2328,-4.2416,-4.2443,-4.2375,-4.2373,-4.2386,-4.2475,-4.2506,-4.2516,-4.2652,-4.2543,-4.255,-4.2555,-4.2558,-4.2891,-4.2895,0,0,0,0,0,0,-4.217,-4.219,-4.2367,-4.2374,-4.2245,-4.2324,-4.2337,-4.2381,-4.2442,-4.2448,-4.2389,-4.2384,-4.2494,-4.2507,-4.252,-4.2666,-4.2552,-4.2559,-4.2564,-4.2887,-4.2892,-4.2897,0,0,0,0,0,0,-4.2165,-4.2186,-4.2362,-4.2281,-4.2303,-4.2332,-4.2382,-4.2385,-4.2416,-4.2453,-4.2457,-4.2416,-4.2492,-4.2509,-4.2611,-4.267,-4.2563,-4.257,-4.2882,-4.2889,-4.2894,-4.2961,0,0,0,0,0,0,-4.2158,-4.2185,-4.2231,-4.2282,-4.2307,-4.2451,-4.2386,-4.239,-4.243,-4.2424,-4.2479,-4.2484,-4.249,-4.26,-4.2619,-4.2679,-4.2576,-4.2877,-4.2885,-4.2892,-4.2953,-4.2968,-4.2981,0,0,0,0,0,-4.215,-4.2245,-4.2233,-4.2255,-4.2366,-4.2455,-4.2469,-4.2474,-4.2435,-4.2481,-4.2505,-4.2483,-4.2661,-4.261,-4.2632,-4.2695,-4.2873,-4.2883,-4.2892,-4.2947,-4.2965,-4.2981,0,0,0,0,0,0,-4.2199,-4.2251,-4.2239,-4.2354,-4.24,-4.2448,-4.2507,-4.2493,-4.2552,-4.2544,-4.2548,-4.256,-4.2666,-4.2691,-4.2634,-4.2817,-4.2761,-4.2775,-4.2796,-4.2814,-4.2827,-4.2818,-4.2583,0,0,0,0,0,-4.2223,-4.2291,-4.2334,-4.2431,-4.2455,-4.2477,-4.2516,-4.2516,-4.2565,-4.2584,-4.2615,-4.2663,-4.273,-4.2773,-4.2837,-4.2958,-4.2969,-4.3012,-4.3026,-4.3037,-4.3049,-4.3115,-4.3134,-4.2927,-4.2927,-4.2927,0,0,-4.2273,-4.2311,-4.2353,-4.2441,-4.2477,-4.2548,-4.2494,-4.257,-4.2623,-4.2596,-4.2694,-4.2719,-4.2773,-4.2885,-4.2936,-4.2909,-4.3109,-4.3049,-4.3058,-4.3063,-4.3126,-4.3146,-4.3163,-4.2933,-4.2932,-4.2931,0,0,-4.2401,-4.2436,-4.2521,-4.2559,-4.2614,-4.2629,-4.265,-4.2701,-4.2716,-4.2815,-4.2796,-4.2859,-4.2974,-4.3013,-4.3048,-4.3194,-4.3175,-4.3215,-4.3286,-4.3351,-4.3367,-4.3382,-4.3433,-4.3451,-4.3226,-4.3227,-4.3227,0,-4.2456,-4.2561,-4.2566,-4.2645,-4.2684,-4.2664,-4.275,-4.2787,-4.286,-4.2888,-4.2858,-4.3002,-4.3037,-4.3158,-4.3194,-4.3223,-4.3247,-4.3207,-4.3365,-4.3379,-4.3393,-4.3442,-4.3461,-4.3231,-4.323,-4.323,-4.323,0,-4.2626,-4.27,-4.2762,-4.2834,-4.2881,-4.2963,-4.2981,-4.3028,-4.3025,-4.3043,-4.3145,-4.3187,-4.3258,-4.3288,-4.3285,-4.341,-4.3391,-4.3363,-4.3307,-4.3417,-4.3463,-4.3481,-4.3237,-4.3235,-4.3234,-4.3233,0,0,-4.2785,-4.286,-4.2883,-4.2915,-4.2976,-4.3033,-4.3116,-4.3186,-4.3226,-4.3279,-4.3347,-4.3447,-4.3421,-4.3461,-4.3463,-4.352,-4.3633,-4.3485,-4.3486,-4.351,-4.3772,-4.3791,-4.3813,-4.3622,-4.3625,-4.3628,-4.3767,0,-4.2916,-4.3059,-4.3068,-4.3198,-4.3266,-4.3249,-4.3321,-4.3366,-4.3387,-4.3448,-4.347,-4.354,-4.3502,-4.3526,-4.3582,-4.3607,-4.3685,-4.3597,-4.3685,-4.3688,-4.367,-4.3837,-4.3857,-4.3985,-4.3785,-4.3788,-4.379,0,-4.3088,-4.3146,-4.3283,-4.3335,-4.3364,-4.3428,-4.3494,-4.3553,-4.3605,-4.3616,-4.3662,-4.3657,-4.3742,-4.3685,-4.3802,-4.3742,-4.3779,-4.3797,-4.3802,-4.3809,-4.3744,-4.3846,-4.4027,-4.4045,-4.3819,-4.3816,-4.3814,0,-4.3188,-4.3301,-4.3397,-4.3426,-4.349,-4.3536,-4.3565,-4.3613,-4.3656,-4.3714,-4.3741,-4.3809,-4.3846,-4.3898,-4.3912,-4.3869,-4.4029,-4.3973,-4.4039,-4.4039,-4.4071,-4.4069,-4.4259,-4.4099,-4.4098,-4.4098,-4.4098,0,-4.3332,-4.3417,-4.3443,-4.3502,-4.3597,-4.3607,-4.37,-4.3726,-4.377,-4.3834,-4.3825,-4.3885,-4.39,-4.3964,-4.3976,-4.4071,-4.4088,-4.4099,-4.41,-4.4098,-4.4097,-4.4121,-4.4111,-4.4103,-4.4102,-4.4101,-4.41,0,-4.3459,-4.348,-4.3584,-4.3637,-4.3653,-4.372,-4.3765,-4.3823,-4.3843,-4.3925,-4.3944,-4.3976,-4.4051,-4.407,-4.416,-4.4168,-4.4279,-4.4274,-4.4261,-4.4261,-4.4326,-4.4319,-4.4536,-4.4564,-4.4388,-4.4389,-4.4391,0,-4.3548,-4.3613,-4.3674,-4.3716,-4.3747,-4.3816,-4.3859,-4.3873,-4.3918,-4.3984,-4.4034,-4.4108,-4.4167,-4.4288,-4.4319,-4.4388,-4.4382,-4.4454,-4.4392,-4.4389,-4.4382,-4.4377,-4.4383,-4.4464,-4.4466,-4.4468,-4.4469,0,-4.3705,-4.3713,-4.3776,-4.3844,-4.3896,-4.395,-4.4002,-4.4037,-4.4058,-4.411,-4.4187,-4.4233,-4.4326,-4.4399,-4.4469,-4.4499,-4.4488,-4.4489,-4.4508,-4.4505,-4.4495,-4.45,-4.4291,-4.4483,-4.4482,-4.4481,-4.448,-4.4479,-4.3815,-4.3871,-4.3923,-4.3994,-4.4035,-4.4084,-4.414,-4.4169,-4.4233,-4.4308,-4.4313,-4.4396,-4.4449,-4.4541,-4.4576,-4.4642,-4.462,-4.4647,-4.4654,-4.466,-4.4665,-4.4487,-4.4655,-4.4654,-4.4654,-4.4654,-4.4653,0,-4.3969,-4.4002,-4.4068,-4.4141,-4.4197,-4.4183,-4.424,-4.4288,-4.4362,-4.4412,-4.4471,-4.456,-4.4632,-4.467,-4.4741,-4.4787,-4.4783,-4.4805,-4.48,-4.4807,-4.4681,-4.4657,-4.4806,-4.4806,-4.4806,-4.4806,-4.4806,-4.4806,-4.4056,-4.4151,-4.4166,-4.4282,-4.4315,-4.4396,-4.443,-4.4475,-4.4515,-4.4615,-4.4675,-4.4699,-4.4745,-4.482,-4.4886,-4.4895,-4.4921,-4.4945,-4.4952,-4.4832,-4.4816,-4.4801,-4.4779,-4.4951,-4.4952,-4.5073,-4.5074,-4.5075]},{"header":{"parameterUnit":"m.s-1","parameterCategory":1,"la1":30.2991,"la2":30.254,"lo1":-89.0895,"lo2":-89.0444,"dx":0.0017,"dy":0.0017,"nx":28,"ny":28,"refTime":"2022-12-29T15:00:00:Z","depth":0,"parameterNumber":3,"parameterNumberName":"V-component_of_WINDS"},"data":[0,0,0,0,0,0,0,0,0,0,0,0,0,0,0,0,0,0,0,0,0,0,0,0,0,0,0,0,0,0,0,0,0,0,0,0,0,0,0,0,0,0,0,0,0,0,0,0,0,0,0,0,0,0,0,0,0,0,0.5684,0.5684,0,0.5691,0.5691,0.5691,0.5673,0.5672,0.5671,0.5671,0.5677,0.5678,0.5678,0,0,0,0,0,0,0,0,0,0,0,0,0,0.5655,0.5655,0.5684,0.5684,0.5684,0.5691,0.5691,0.5691,0.5673,0.5672,0.5671,0.5671,0.5677,0.5678,0.5678,0,0,0,0,0,0,0,0,0,0,0,0,0,0.5665,0.5656,0.5684,0.5676,0.5675,0.5691,0.5691,0.5691,0.5673,0.5672,0.5671,0.567,0.5677,0.5678,0.5679,0.5702,0,0,0.5682,0.5682,0,0,0,0,0,0,0,0,0.5665,0.5666,0.5677,0.5676,0.5676,0.568,0.5683,0.5695,0.5673,0.5674,0.5671,0.567,0.5679,0.5679,0.5683,0.5703,0.5703,0.5682,0.5683,0.5683,0.5683,0,0,0,0,0,0,0,0.5664,0.5666,0.5687,0.5677,0.5676,0.5672,0.5672,0.5685,0.5681,0.5673,0.5672,0.5673,0.5678,0.5682,0.5683,0.5703,0.5682,0.5683,0.5683,0.5684,0.5745,0.5746,0,0,0,0,0,0,0.5664,0.5665,0.5686,0.5687,0.5668,0.5673,0.5674,0.5679,0.5681,0.568,0.5674,0.5672,0.568,0.5681,0.5683,0.5713,0.5683,0.5684,0.5685,0.5744,0.5746,0.5747,0,0,0,0,0,0,0.5664,0.5666,0.5686,0.5676,0.5678,0.5674,0.5681,0.568,0.5684,0.5681,0.568,0.5679,0.568,0.5681,0.5698,0.5712,0.5684,0.5685,0.5743,0.5745,0.5746,0.5771,0,0,0,0,0,0,0.5663,0.5666,0.5675,0.5676,0.5679,0.5701,0.5682,0.5681,0.5686,0.5684,0.5685,0.5684,0.5679,0.5697,0.5699,0.5713,0.5686,0.5742,0.5744,0.5746,0.5769,0.5773,0.5777,0,0,0,0,0,0.5662,0.5681,0.5676,0.5678,0.569,0.5702,0.5704,0.5697,0.5687,0.5696,0.5695,0.5684,0.571,0.5699,0.5701,0.5716,0.5741,0.5743,0.5746,0.5767,0.5772,0.5777,0,0,0,0,0,0,0.5681,0.5681,0.5675,0.5695,0.5699,0.5699,0.571,0.5703,0.571,0.5707,0.5699,0.57,0.5719,0.5719,0.5706,0.574,0.5724,0.5727,0.574,0.5744,0.5748,0.5748,0.5687,0,0,0,0,0,0.5687,0.5698,0.5697,0.5715,0.5717,0.5714,0.5719,0.5714,0.5718,0.5719,0.5719,0.5723,0.5732,0.5738,0.5746,0.5769,0.577,0.578,0.5784,0.5787,0.579,0.5804,0.581,0.5754,0.5754,0.5754,0,0,0.5701,0.5702,0.5709,0.5719,0.5721,0.5733,0.5715,0.5727,0.5736,0.5721,0.5737,0.5738,0.5741,0.5762,0.5771,0.5763,0.5806,0.579,0.5793,0.5794,0.5807,0.5813,0.5817,0.5756,0.5755,0.5755,0,0,0.5732,0.5733,0.5749,0.5752,0.5757,0.5755,0.5759,0.576,0.576,0.5777,0.5766,0.5776,0.5792,0.5796,0.58,0.5834,0.5825,0.5837,0.5858,0.5871,0.5876,0.588,0.5894,0.5899,0.5839,0.5839,0.5839,0,0.5748,0.5765,0.5758,0.5772,0.5777,0.5765,0.5782,0.5785,0.5792,0.5796,0.5786,0.5807,0.5808,0.5831,0.584,0.5842,0.5848,0.5837,0.5876,0.588,0.5883,0.5896,0.5901,0.5841,0.5841,0.5841,0.584,0,0.5785,0.5797,0.581,0.5818,0.5824,0.5839,0.5836,0.5843,0.5838,0.5837,0.5855,0.5856,0.5866,0.587,0.5865,0.5893,0.5888,0.5877,0.5861,0.589,0.5902,0.5907,0.5843,0.5843,0.5842,0.5842,0,0,0.5828,0.5833,0.5838,0.5843,0.5847,0.5857,0.5872,0.5881,0.5889,0.5894,0.5907,0.5922,0.5913,0.5917,0.5912,0.5924,0.5954,0.5912,0.5912,0.5921,0.5986,0.5995,0.6001,0.5948,0.5949,0.5949,0.5987,0,0.5859,0.5886,0.5881,0.5907,0.5919,0.5909,0.5922,0.5927,0.5926,0.5937,0.5936,0.5947,0.5933,0.5936,0.5948,0.5948,0.5967,0.5945,0.5961,0.5961,0.5962,0.6007,0.6016,0.6051,0.5991,0.5992,0.5992,0,0.59,0.5908,0.5936,0.5941,0.5946,0.5958,0.5968,0.5977,0.5983,0.5982,0.5988,0.5981,0.5997,0.598,0.6002,0.5988,0.5994,0.5995,0.5996,0.5998,0.598,0.6012,0.6062,0.6068,0.6,0.5999,0.5999,0,0.593,0.5948,0.5968,0.5971,0.5977,0.5986,0.5989,0.5994,0.6001,0.6009,0.6014,0.6023,0.6029,0.6037,0.6033,0.6021,0.6057,0.6039,0.6058,0.6058,0.6066,0.6066,0.6119,0.6068,0.6068,0.6068,0.6068,0,0.5967,0.5985,0.5982,0.5994,0.6014,0.6008,0.6028,0.603,0.6034,0.6047,0.6037,0.6049,0.6043,0.6055,0.6052,0.6072,0.6074,0.6075,0.6074,0.6076,0.6077,0.6081,0.6079,0.6069,0.6069,0.6069,0.6069,0,0.6005,0.6003,0.6024,0.6028,0.603,0.6044,0.6048,0.606,0.6059,0.6075,0.6079,0.6078,0.6091,0.6089,0.6103,0.6101,0.6127,0.6122,0.6125,0.6125,0.6144,0.6143,0.6203,0.6212,0.6154,0.6154,0.6155,0,0.6029,0.6043,0.6049,0.6057,0.6061,0.6074,0.6081,0.6077,0.6085,0.6094,0.6104,0.6117,0.6127,0.615,0.615,0.6162,0.6158,0.6179,0.616,0.6163,0.6161,0.6161,0.6163,0.6183,0.6184,0.6184,0.6184,0,0.6073,0.6072,0.6083,0.6095,0.6104,0.6113,0.6121,0.6128,0.6124,0.6134,0.6149,0.6157,0.6172,0.6186,0.6197,0.6199,0.6192,0.619,0.6196,0.6199,0.6201,0.6202,0.6137,0.6189,0.6189,0.6188,0.6188,0.6188,0.6106,0.6118,0.6125,0.6139,0.6144,0.6152,0.6164,0.6166,0.6178,0.6191,0.6187,0.6204,0.6211,0.6225,0.6229,0.6242,0.6235,0.6242,0.6244,0.6246,0.6249,0.6198,0.6244,0.6244,0.6244,0.6244,0.6244,0,0.6151,0.6155,0.6167,0.618,0.6191,0.6183,0.6191,0.6201,0.6216,0.6223,0.6234,0.6251,0.6265,0.6267,0.628,0.629,0.6287,0.6294,0.6294,0.6295,0.6254,0.6249,0.6296,0.6296,0.6296,0.6296,0.6296,0.6296,0.6175,0.6197,0.6197,0.6222,0.6226,0.6243,0.6249,0.6256,0.6262,0.6282,0.6294,0.6295,0.6301,0.6314,0.6327,0.6327,0.6333,0.6341,0.6341,0.6303,0.6298,0.6293,0.6288,0.6342,0.6342,0.638,0.6381,0.6381]}]]